Location: Putah Creek Observatory
(38.7021°N, 122.3865°W)
Time: 01:51:39
(UTC-07:00)

Cosmos 1833 - Pass Details

Date: 27 May 2018
Orbit: 829 x 870 km, 70.9° (Epoch: 19 August)

Event Time Altitude Azimuth Distance (km) Brightness Sun altitude
Rises 21:56:32 0° 208° (SSW) 3,419 7.2 -15.2°
Reaches altitude 10° 21:59:00 10° 211° (SSW) 2,480 6.5 -15.5°
Maximum altitude 22:04:41 68° 294° (WNW) 913 4.6 -16.3°
Drops below altitude 10° 22:10:20 10° 18° (NNE) 2,467 7.0 -17.0°
Sets 22:12:47 0° 21° (NNE) 3,400 7.7 -17.3°
